This is the latest recevied weather packets stored in our database for station/object DJ2DS-13. If no packets are shown the sender has not sent any weather packets the latest 10 day(s).
| Time | Temp. | Humidity | Pressure | Rain* | Wind** | Luminosity | Snow |
|---|---|---|---|---|---|---|---|
| 1778165150 | 16.11° C | 65% | 1015.2 hPa | 0 mm | - | 596 W/m² | - |
| 1778164859 | 15.56° C | 66% | 1015.2 hPa | 0 mm | - | 610 W/m² | - |
| 1778164552 | 15.56° C | 65% | 1015.2 hPa | 0 mm | - | 176 W/m² | - |
| 1778164252 | 15.56° C | 63% | 1015.3 hPa | 0 mm | - | 575 W/m² | - |
| 1778163946 | 15.56° C | 63% | 1015.2 hPa | 0 mm | - | 557 W/m² | - |
| 1778163644 | 16.11° C | 65% | 1015.2 hPa | 0 mm | - | 543 W/m² | - |
| 1778163344 | 16.11° C | 65% | 1015.2 hPa | 0 mm | - | 426 W/m² | - |
| 1778163041 | 15.56° C | 64% | 1015.2 hPa | 0 mm | - | 742 W/m² | - |
| 1778162739 | 15.56° C | 64% | 1015.2 hPa | 0 mm | - | 705 W/m² | - |
| 1778162441 | 15.56° C | 66% | 1015.2 hPa | 0 mm | - | 698 W/m² | - |
| 1778162139 | 16.11° C | 66% | 1015.3 hPa | 0 mm | - | 661 W/m² | - |
| 1778161838 | 16.11° C | 67% | 1015.3 hPa | 0 mm | - | 688 W/m² | - |
| 1778161537 | 15.56° C | 68% | 1015.3 hPa | 0 mm | - | 688 W/m² | - |
| 1778161237 | 16.11° C | 68% | 1015.2 hPa | 0 mm | - | 710 W/m² | - |
| 1778160935 | 16.11° C | 68% | 1015.2 hPa | 0 mm | - | 714 W/m² | - |
| 1778160635 | 15.56° C | 67% | 1015.2 hPa | 0 mm | - | 709 W/m² | - |
| 1778160331 | 15.56° C | 67% | 1015.2 hPa | 0 mm | - | 723 W/m² | - |
| 1778160028 | 15.56° C | 66% | 1015.2 hPa | 0 mm | - | 726 W/m² | - |
| 1778159728 | 15.56° C | 68% | 1015.2 hPa | 0 mm | - | 783 W/m² | - |
| 1778159428 | 15.56° C | 70% | 1015.1 hPa | 0 mm | - | 832 W/m² | - |
| 1778159131 | 15° C | 68% | 1015.2 hPa | 0 mm | - | 818 W/m² | - |
| 1778158828 | 15.56° C | 66% | 1015.2 hPa | 0 mm | - | 143 W/m² | - |
| 1778158528 | 15° C | 68% | 1015.1 hPa | 0 mm | - | 853 W/m² | - |
| 1778158227 | 15° C | 64% | 1015.1 hPa | 0 mm | - | 206 W/m² | - |
| 1778157926 | 15° C | 65% | 1015 hPa | 0 mm | - | 197 W/m² | - |
* Rain latest hour (hover to see other rain measurements)
** Current wind speed in m/s (hover to see current wind gust speed)